Terminal Aerodrome Forecast
Issued by NWS Lake Charles, LA

Home | Current Version | Previous Version | Text Only | Print | Product List | Glossary On
Versions: 1 2 3 4 5 6 7 8 9 10 11 12 13
000
FTUS44 KLCH 291726
TAFBPT
TAF
KBPT 291726Z 2918/3018 16009KT P6SM SCT060 SCT220
     FM292300 21003KT P6SM BKN190=

USA.gov is the U.S. government's official web portal to all federal, state and local government web resources and services.